| time (UTC) | temp F | wind direction | speed MPH | gust MPH | rain 1hr in | rain 24hr in | rain mn in | humidity % | barometer mb |
| 20260506193104 | 74 | 317 | 1.0 | 5.0 | 0.00 | 0.00 | 0.00 | 60 | 1021.1 |
| 20260506192604 | 74 | 316 | 1.0 | 5.0 | 0.00 | 0.00 | 0.00 | 57 | 1021.2 |
| 20260506192104 | 73 | 302 | 1.0 | 4.0 | 0.00 | 0.00 | 0.00 | 58 | 1021.1 |
| 20260506191603 | 73 | 296 | 1.0 | 4.0 | 0.00 | 0.00 | 0.00 | 61 | 1021.2 |
| 20260506191101 | 72 | 293 | 1.0 | 4.0 | 0.00 | 0.00 | 0.00 | 62 | 1021.3 |
| 20260506185610 | 70 | 28 | 1.0 | 5.0 | 0.00 | 0.00 | 0.00 | 64 | 1021.3 |
| 20260506185102 | 70 | 30 | 2.0 | 6.0 | 0.00 | 0.00 | 0.00 | 63 | 1021.4 |
| 20260506184100 | 69 | 275 | 1.0 | 4.0 | 0.00 | 0.00 | 0.00 | 67 | 1021.4 |
| 20260506183556 | 69 | 274 | 1.0 | 4.0 | 0.00 | 0.00 | 0.00 | 64 | 1021.5 |
| 20260506183056 | 69 | 348 | 0.0 | 3.0 | 0.00 | 0.00 | 0.00 | 66 | 1021.5 |
| 20260506182556 | 69 | 276 | 0.0 | 2.0 | 0.00 | 0.00 | 0.00 | 67 | 1021.5 |
| 20260506182057 | 68 | 276 | 1.0 | 2.0 | 0.00 | 0.00 | 0.00 | 65 | 1021.6 |
| 20260506181051 | 68 | 273 | 0.0 | 3.0 | 0.00 | 0.00 | 0.00 | 65 | 1021.6 |
| 20260506180549 | 68 | 273 | 1.0 | 3.0 | 0.00 | 0.00 | 0.00 | 65 | 1021.6 |
| 20260506180047 | 68 | 281 | 1.0 | 3.0 | 0.00 | 0.00 | 0.00 | 68 | 1021.6 |
| 20260506175548 | 67 | 284 | 1.0 | 4.0 | 0.00 | 0.00 | 0.00 | 66 | 1021.6 |
| 20260506175048 | 67 | 261 | 1.0 | 4.0 | 0.00 | 0.00 | 0.00 | 67 | 1021.6 |
| 20260506174548 | 67 | 234 | 1.0 | 2.0 | 0.00 | 0.00 | 0.00 | 66 | 1021.6 |
| 20260506173546 | 65 | 232 | 1.0 | 4.0 | 0.00 | 0.00 | 0.00 | 70 | 1021.6 |
| 20260506172534 | 64 | 234 | 0.0 | 1.0 | 0.00 | 0.00 | 0.00 | 70 | 1021.7 |
| 20260506172028 | 65 | 234 | 0.0 | 3.0 | 0.00 | 0.00 | 0.00 | 72 | 1021.7 |
| 20260506171527 | 65 | 234 | 0.0 | 3.0 | 0.00 | 0.00 | 0.00 | 71 | 1021.8 |
| 20260506171028 | 64 | 303 | 0.0 | 3.0 | 0.00 | 0.00 | 0.00 | 71 | 1021.8 |
| 20260506170529 | 64 | 302 | 0.0 | 3.0 | 0.00 | 0.00 | 0.00 | 72 | 1021.8 |
| 20260506170025 | 63 | 303 | 1.0 | 3.0 | 0.00 | 0.00 | 0.00 | 73 | 1021.8 |
| 20260506165525 | 64 | 303 | 1.0 | 3.0 | 0.00 | 0.00 | 0.00 | 72 | 1021.8 |
| 20260506165025 | 63 | 288 | 0.0 | 2.0 | 0.00 | 0.00 | 0.00 | 73 | 1021.9 |
| 20260506164525 | 62 | 290 | 0.0 | 2.0 | 0.00 | 0.00 | 0.00 | 74 | 1021.8 |
| 20260506163525 | 61 | 290 | 0.0 | 2.0 | 0.00 | 0.00 | 0.00 | 76 | 1021.9 |
| 20260506163025 | 62 | 290 | 1.0 | 3.0 | 0.00 | 0.00 | 0.00 | 76 | 1021.9 |
| 20260506162525 | 62 | 290 | 1.0 | 3.0 | 0.00 | 0.00 | 0.00 | 74 | 1021.9 |
| 20260506162027 | 61 | 302 | 0.0 | 3.0 | 0.00 | 0.00 | 0.00 | 77 | 1021.9 |
| 20260506161527 | 60 | 302 | 0.0 | 3.0 | 0.00 | 0.00 | 0.00 | 79 | 1021.9 |
| 20260506161025 | 59 | 289 | 0.0 | 2.0 | 0.00 | 0.00 | 0.00 | 79 | 1021.9 |
| 20260506160021 | 59 | 289 | 0.0 | 2.0 | 0.00 | 0.00 | 0.00 | 79 | 1022.0 |
| 20260506155521 | 59 | 289 | 0.0 | 2.0 | 0.00 | 0.00 | 0.00 | 80 | 1022.0 |
| 20260506155019 | 58 | 289 | 0.0 | 1.0 | 0.00 | 0.00 | 0.00 | 80 | 1022.0 |
| 20260506154521 | 58 | 289 | 0.0 | 2.0 | 0.00 | 0.00 | 0.00 | 80 | 1022.0 |
| 20260506154020 | 58 | 289 | 0.0 | 2.0 | 0.00 | 0.00 | 0.00 | 80 | 1022.1 |
| 20260506153016 | 58 | 290 | 0.0 | 2.0 | 0.00 | 0.00 | 0.00 | 81 | 1022.1 |
| 20260506152516 | 58 | 287 | 0.0 | 0.0 | 0.00 | 0.00 | 0.00 | 82 | 1022.1 |
| 20260506152015 | 58 | 287 | 0.0 | 1.0 | 0.00 | 0.00 | 0.00 | 82 | 1022.1 |
| 20260506151514 | 58 | 287 | 0.0 | 1.0 | 0.00 | 0.00 | 0.00 | 82 | 1022.1 |
| 20260506151010 | 58 | 287 | 0.0 | 1.0 | 0.00 | 0.00 | 0.00 | 82 | 1022.0 |
| 20260506150508 | 57 | 287 | 0.0 | 3.0 | 0.00 | 0.00 | 0.00 | 82 | 1022.0 |
| 20260506150004 | 57 | 288 | 0.0 | 3.0 | 0.00 | 0.00 | 0.00 | 83 | 1022.0 |
| 20260506145458 | 57 | 315 | 0.0 | 1.0 | 0.00 | 0.00 | 0.00 | 84 | 1021.9 |
| 20260506144957 | 56 | 315 | 0.0 | 0.0 | 0.00 | 0.00 | 0.00 | 84 | 1022.0 |
| 20260506143753 | 55 | 315 | 0.0 | 0.0 | 0.00 | 0.00 | 0.00 | 87 | 1022.0 |
| 20260506143244 | 55 | 315 | 0.0 | 0.0 | 0.00 | 0.00 | 0.00 | 86 | 1021.9 |
| 20260506142739 | 55 | 315 | 0.0 | 0.0 | 0.00 | 0.00 | 0.00 | 86 | 1021.8 |
| 20260506141716 | 55 | 315 | 0.0 | 0.0 | 0.00 | 0.00 | 0.00 | 87 | 1021.8 |
| 20260506141211 | 54 | 315 | 0.0 | 0.0 | 0.00 | 0.00 | 0.00 | 88 | 1021.7 |
| 20260506140711 | 54 | 315 | 0.0 | 0.0 | 0.00 | 0.00 | 0.00 | 89 | 1021.6 |
| 20260506135706 | 54 | 315 | 0.0 | 0.0 | 0.00 | 0.00 | 0.00 | 88 | 1021.5 |
| 20260506135205 | 54 | 315 | 0.0 | 0.0 | 0.00 | 0.00 | 0.00 | 88 | 1021.4 |
| 20260506134658 | 54 | 315 | 0.0 | 0.0 | 0.00 | 0.00 | 0.00 | 88 | 1021.4 |
| 20260506134154 | 54 | 315 | 0.0 | 0.0 | 0.00 | 0.00 | 0.00 | 89 | 1021.4 |
| 20260506133652 | 54 | 315 | 0.0 | 0.0 | 0.00 | 0.00 | 0.00 | 90 | 1021.4 |
| 20260506132652 | 53 | 315 | 0.0 | 0.0 | 0.00 | 0.00 | 0.00 | 90 | 1021.4 |
| 20260506132151 | 53 | 315 | 0.0 | 0.0 | 0.00 | 0.00 | 0.00 | 90 | 1021.3 |
| 20260506131651 | 54 | 315 | 0.0 | 0.0 | 0.00 | 0.00 | 0.00 | 89 | 1021.3 |
| 20260506130649 | 54 | 315 | 0.0 | 0.0 | 0.00 | 0.00 | 0.00 | 89 | 1021.1 |
| 20260506130148 | 54 | 315 | 0.0 | 0.0 | 0.00 | 0.00 | 0.00 | 89 | 1021.2 |
| 20260506125648 | 54 | 315 | 0.0 | 0.0 | 0.00 | 0.00 | 0.00 | 88 | 1021.2 |
| 20260506125148 | 54 | 315 | 0.0 | 0.0 | 0.00 | 0.00 | 0.00 | 88 | 1021.1 |
| 20260506124649 | 54 | 315 | 0.0 | 0.0 | 0.00 | 0.00 | 0.00 | 87 | 1021.0 |
| 20260506123648 | 55 | 315 | 0.0 | 0.0 | 0.00 | 0.00 | 0.00 | 87 | 1021.0 |
| 20260506123146 | 55 | 315 | 0.0 | 0.0 | 0.00 | 0.00 | 0.00 | 87 | 1021.0 |
| 20260506122646 | 55 | 315 | 0.0 | 0.0 | 0.00 | 0.00 | 0.00 | 87 | 1021.1 |
| 20260506122147 | 55 | 315 | 0.0 | 0.0 | 0.00 | 0.00 | 0.00 | 87 | 1021.1 |
| 20260506121647 | 55 | 315 | 0.0 | 0.0 | 0.00 | 0.00 | 0.00 | 87 | 1021.0 |
| 20260506120646 | 55 | 315 | 0.0 | 0.0 | 0.00 | 0.00 | 0.00 | 87 | 1021.0 |
| 20260506120148 | 55 | 315 | 0.0 | 0.0 | 0.00 | 0.00 | 0.00 | 87 | 1021.0 |
| 20260506115642 | 55 | 315 | 0.0 | 0.0 | 0.00 | 0.00 | 0.00 | 87 | 1021.0 |
| 20260506115144 | 55 | 315 | 0.0 | 0.0 | 0.00 | 0.00 | 0.00 | 87 | 1020.9 |
| 20260506114643 | 55 | 315 | 0.0 | 0.0 | 0.00 | 0.00 | 0.00 | 87 | 1020.7 |
| 20260506114143 | 55 | 315 | 0.0 | 0.0 | 0.00 | 0.00 | 0.00 | 87 | 1020.8 |
| 20260506113142 | 55 | 315 | 0.0 | 0.0 | 0.00 | 0.00 | 0.00 | 88 | 1020.7 |
| 20260506112642 | 55 | 315 | 0.0 | 0.0 | 0.00 | 0.00 | 0.00 | 87 | 1020.7 |
| 20260506112156 | 55 | 315 | 0.0 | 0.0 | 0.00 | 0.00 | 0.00 | 87 | 1020.5 |
| 20260506111136 | 55 | 315 | 0.0 | 0.0 | 0.00 | 0.00 | 0.00 | 86 | 1020.5 |
| 20260506110631 | 55 | 315 | 0.0 | 0.0 | 0.00 | 0.00 | 0.00 | 86 | 1020.4 |
| 20260506110124 | 55 | 315 | 0.0 | 0.0 | 0.00 | 0.00 | 0.00 | 86 | 1020.3 |
| 20260506105624 | 55 | 315 | 0.0 | 0.0 | 0.00 | 0.00 | 0.00 | 87 | 1020.3 |
| 20260506105124 | 55 | 315 | 0.0 | 0.0 | 0.00 | 0.00 | 0.00 | 86 | 1020.3 |
| 20260506104125 | 55 | 315 | 0.0 | 0.0 | 0.00 | 0.00 | 0.00 | 86 | 1020.3 |
| 20260506103125 | 55 | 315 | 0.0 | 1.0 | 0.00 | 0.00 | 0.00 | 87 | 1020.2 |
| 20260506102625 | 55 | 315 | 0.0 | 1.0 | 0.00 | 0.00 | 0.00 | 87 | 1020.1 |
| 20260506102124 | 55 | 315 | 0.0 | 1.0 | 0.00 | 0.00 | 0.00 | 86 | 1020.1 |
| 20260506101626 | 55 | 315 | 0.0 | 0.0 | 0.00 | 0.00 | 0.00 | 86 | 1020.0 |
| 20260506101124 | 55 | 315 | 0.0 | 0.0 | 0.00 | 0.00 | 0.00 | 86 | 1020.0 |
| 20260506100126 | 55 | 315 | 0.0 | 0.0 | 0.00 | 0.00 | 0.00 | 86 | 1020.0 |
| 20260506095112 | 55 | 315 | 0.0 | 0.0 | 0.00 | 0.00 | 0.00 | 86 | 1020.1 |
| 20260506093425 | 55 | 315 | 0.0 | 0.0 | 0.00 | 0.00 | 0.00 | 85 | 1020.0 |
| 20260506092900 | 55 | 315 | 0.0 | 1.0 | 0.00 | 0.00 | 0.00 | 86 | 1020.0 |
| 20260506092340 | 55 | 315 | 0.0 | 1.0 | 0.00 | 0.00 | 0.00 | 85 | 1020.0 |
| 20260506091824 | 55 | 315 | 0.0 | 1.0 | 0.00 | 0.00 | 0.00 | 85 | 1020.0 |
| 20260506091326 | 55 | 315 | 0.0 | 1.0 | 0.00 | 0.00 | 0.00 | 85 | 1020.1 |
| 20260506090818 | 55 | 315 | 0.0 | 1.0 | 0.00 | 0.00 | 0.00 | 85 | 1020.1 |
| 20260506085957 | 55 | 315 | 0.0 | 1.0 | 0.00 | 0.00 | 0.00 | 86 | 1020.1 |
| 20260506085451 | 54 | 315 | 0.0 | 1.0 | 0.00 | 0.00 | 0.00 | 86 | 1020.1 |
| 20260506084431 | 54 | 315 | 0.0 | 0.0 | 0.00 | 0.00 | 0.00 | 86 | 1020.0 |
| 20260506083925 | 54 | 315 | 0.0 | 0.0 | 0.00 | 0.00 | 0.00 | 86 | 1020.2 |
| 20260506083422 | 54 | 315 | 0.0 | 2.0 | 0.00 | 0.00 | 0.00 | 86 | 1020.1 |
| 20260506082920 | 54 | 315 | 0.0 | 2.0 | 0.00 | 0.00 | 0.00 | 86 | 1020.0 |
| 20260506082418 | 54 | 315 | 0.0 | 2.0 | 0.00 | 0.00 | 0.00 | 86 | 1019.9 |
| 20260506081918 | 54 | 315 | 0.0 | 2.0 | 0.00 | 0.00 | 0.00 | 86 | 1020.1 |
| 20260506081418 | 54 | 315 | 0.0 | 1.0 | 0.00 | 0.00 | 0.00 | 87 | 1020.0 |
| 20260506080414 | 53 | 315 | 0.0 | 1.0 | 0.00 | 0.00 | 0.00 | 88 | 1020.0 |
| 20260506073400 | 53 | 315 | 0.0 | 1.0 | 0.00 | 0.00 | 0.00 | 88 | 1019.8 |
| 20260506072858 | 53 | 315 | 0.0 | 1.0 | 0.00 | 0.00 | 0.00 | 88 | 1019.8 |
| 20260506072357 | 53 | 315 | 0.0 | 0.0 | 0.00 | 0.00 | 0.00 | 88 | 1019.7 |
| 20260506071854 | 53 | 315 | 0.0 | 0.0 | 0.00 | 0.00 | 0.00 | 88 | 1019.8 |
| 20260506070856 | 53 | 315 | 0.0 | 0.0 | 0.00 | 0.00 | 0.00 | 87 | 1019.6 |
| 20260506062343 | 54 | 315 | 0.0 | 1.0 | 0.00 | 0.00 | 0.12 | 85 | 1019.3 |
| 20260506061843 | 55 | 315 | 0.0 | 1.0 | 0.00 | 0.00 | 0.12 | 84 | 1019.3 |
| 20260506061343 | 55 | 315 | 0.0 | 1.0 | 0.00 | 0.00 | 0.12 | 84 | 1019.3 |
| 20260506060841 | 55 | 315 | 0.0 | 1.0 | 0.00 | 0.00 | 0.12 | 84 | 1019.2 |
| 20260506060339 | 55 | 315 | 0.0 | 1.0 | 0.00 | 0.00 | 0.12 | 84 | 1019.2 |
| 20260506051317 | 57 | 309 | 1.0 | 4.0 | 0.00 | 0.00 | 0.12 | 80 | 1018.9 |
| 20260506050310 | 57 | 268 | 1.0 | 3.0 | 0.00 | 0.00 | 0.12 | 80 | 1018.8 |
| 20260506044756 | 57 | 86 | 1.0 | 0.0 | 0.00 | 0.00 | 0.12 | 80 | 1018.7 |
| 20260506043528 | 57 | 267 | 0.0 | 3.0 | 0.00 | 0.00 | 0.12 | 80 | 1018.6 |
| 20260506043023 | 57 | 267 | 0.0 | 3.0 | 0.00 | 0.00 | 0.12 | 79 | 1018.5 |
| 20260506042506 | 58 | 207 | 0.0 | 2.0 | 0.00 | 0.00 | 0.12 | 79 | 1018.4 |
| 20260506042006 | 58 | 236 | 0.0 | 3.0 | 0.00 | 0.00 | 0.12 | 79 | 1018.5 |
| 20260506041503 | 58 | 235 | 0.0 | 3.0 | 0.00 | 0.00 | 0.12 | 78 | 1018.3 |
| 20260506041006 | 58 | 243 | 0.0 | 7.0 | 0.00 | 0.00 | 0.12 | 78 | 1018.2 |
| 20260506040501 | 58 | 247 | 1.0 | 7.0 | 0.00 | 0.00 | 0.12 | 78 | 1018.3 |
| 20260506035959 | 58 | 243 | 1.0 | 6.0 | 0.00 | 0.00 | 0.12 | 78 | 1018.2 |
| 20260506034958 | 58 | 186 | 1.0 | 5.0 | 0.00 | 0.00 | 0.12 | 78 | 1018.1 |
| 20260506033939 | 59 | 254 | 1.0 | 0.0 | 0.00 | 0.00 | 0.12 | 78 | 1018.0 |
| 20260506032628 | 59 | 235 | 1.0 | 3.0 | 0.00 | 0.00 | 0.12 | 77 | 1017.8 |
| 20260506032124 | 59 | 232 | 1.0 | 4.0 | 0.00 | 0.00 | 0.12 | 77 | 1017.5 |
| 20260506031623 | 59 | 330 | 0.0 | 4.0 | 0.00 | 0.00 | 0.12 | 77 | 1017.4 |
| 20260506030613 | 59 | 246 | 1.0 | 4.0 | 0.00 | 0.00 | 0.12 | 77 | 1017.3 |
| 20260506025607 | 59 | 258 | 1.0 | 8.0 | 0.00 | 0.00 | 0.12 | 75 | 1017.4 |
| 20260506025105 | 59 | 265 | 1.0 | 8.0 | 0.00 | 0.00 | 0.12 | 75 | 1017.4 |
| 20260506024604 | 60 | 267 | 1.0 | 3.0 | 0.00 | 0.00 | 0.12 | 75 | 1017.4 |
| 20260506024102 | 60 | 236 | 1.0 | 4.0 | 0.00 | 0.00 | 0.12 | 75 | 1017.2 |
| 20260506023556 | 60 | 269 | 1.0 | 2.0 | 0.00 | 0.00 | 0.12 | 75 | 1017.1 |
| 20260506022203 | 60 | 254 | 1.0 | 4.0 | 0.00 | 0.00 | 0.12 | 75 | 1017.1 |
| 20260506021703 | 60 | 254 | 1.0 | 4.0 | 0.00 | 0.00 | 0.12 | 75 | 1017.1 |
| 20260506020657 | 60 | 196 | 0.0 | 2.0 | 0.00 | 0.00 | 0.12 | 76 | 1017.0 |
| 20260506020141 | 60 | 196 | 1.0 | 6.0 | 0.00 | 0.00 | 0.12 | 76 | 1017.0 |
| 20260506015636 | 61 | 267 | 1.0 | 6.0 | 0.00 | 0.00 | 0.12 | 75 | 1016.9 |
| 20260506015133 | 61 | 252 | 1.0 | 6.0 | 0.00 | 0.00 | 0.12 | 75 | 1016.8 |
| 20260506014633 | 61 | 274 | 1.0 | 6.0 | 0.00 | 0.00 | 0.12 | 75 | 1016.8 |
| 20260506013630 | 61 | 255 | 1.0 | 4.0 | 0.00 | 0.00 | 0.12 | 75 | 1016.7 |
| 20260506013130 | 62 | 119 | 1.0 | 6.0 | 0.00 | 0.00 | 0.12 | 75 | 1016.6 |
| 20260506012631 | 62 | 256 | 1.0 | 6.0 | 0.00 | 0.00 | 0.12 | 75 | 1016.5 |
| 20260506012125 | 62 | 322 | 1.0 | 3.0 | 0.00 | 0.00 | 0.12 | 75 | 1016.6 |
| 20260506011105 | 62 | 107 | 1.0 | 4.0 | 0.00 | 0.00 | 0.12 | 75 | 1016.6 |
| 20260506010600 | 62 | 248 | 1.0 | 7.0 | 0.00 | 0.00 | 0.12 | 75 | 1016.6 |
| 20260506010048 | 62 | 272 | 1.0 | 7.0 | 0.00 | 0.00 | 0.12 | 75 | 1016.6 |
| 20260506005543 | 63 | 219 | 0.0 | 2.0 | 0.00 | 0.00 | 0.12 | 75 | 1016.6 |
| 20260506005037 | 63 | 165 | 1.0 | 2.0 | 0.00 | 0.00 | 0.12 | 74 | 1016.6 |
| 20260506004521 | 63 | 164 | 1.0 | 2.0 | 0.00 | 0.00 | 0.12 | 74 | 1016.5 |
| 20260506004015 | 64 | 140 | 1.0 | 5.0 | 0.00 | 0.00 | 0.12 | 73 | 1016.4 |
| 20260506003511 | 64 | 136 | 1.0 | 6.0 | 0.00 | 0.00 | 0.12 | 74 | 1016.3 |
| 20260506003000 | 64 | 273 | 1.0 | 6.0 | 0.00 | 0.00 | 0.12 | 75 | 1016.4 |
| 20260506001949 | 64 | 233 | 1.0 | 5.0 | 0.00 | 0.00 | 0.12 | 74 | 1016.3 |
| 20260506000431 | 63 | 261 | 1.0 | 4.0 | 0.00 | 0.00 | 0.12 | 73 | 1016.3 |
| 20260505235921 | 63 | 215 | 1.0 | 5.0 | 0.00 | 0.00 | 0.12 | 73 | 1016.3 |
| 20260505235414 | 63 | 230 | 1.0 | 5.0 | 0.00 | 0.00 | 0.12 | 74 | 1016.2 |
| 20260505234909 | 63 | 158 | 1.0 | 4.0 | 0.00 | 0.00 | 0.12 | 74 | 1016.2 |
| 20260505234356 | 63 | 302 | 1.0 | 5.0 | 0.00 | 0.00 | 0.12 | 74 | 1016.3 |
| 20260505233344 | 63 | 264 | 0.0 | 4.0 | 0.00 | 0.00 | 0.12 | 74 | 1016.3 |
| 20260505232832 | 63 | 240 | 0.0 | 4.0 | 0.00 | 0.00 | 0.12 | 75 | 1016.3 |
| 20260505232327 | 63 | 274 | 0.0 | 2.0 | 0.00 | 0.00 | 0.12 | 75 | 1016.3 |
| 20260505231821 | 62 | 291 | 1.0 | 6.0 | 0.00 | 0.00 | 0.12 | 77 | 1016.4 |
| 20260505230801 | 62 | 259 | 1.0 | 4.0 | 0.00 | 0.00 | 0.12 | 75 | 1016.4 |
| 20260505230255 | 62 | 218 | 1.0 | 3.0 | 0.00 | 0.00 | 0.12 | 76 | 1016.5 |
| 20260505225744 | 62 | 217 | 1.0 | 3.0 | 0.00 | 0.00 | 0.12 | 77 | 1016.4 |
| 20260505225238 | 62 | 267 | 0.0 | 3.0 | 0.00 | 0.00 | 0.12 | 76 | 1016.4 |
| 20260505224733 | 62 | 267 | 1.0 | 6.0 | 0.00 | 0.00 | 0.12 | 76 | 1016.4 |
| 20260505224218 | 62 | 277 | 1.0 | 6.0 | 0.00 | 0.00 | 0.12 | 76 | 1016.5 |
| 20260505223713 | 62 | 315 | 0.0 | 2.0 | 0.00 | 0.00 | 0.12 | 77 | 1016.4 |
| 20260505223207 | 62 | 321 | 0.0 | 2.0 | 0.00 | 0.00 | 0.12 | 76 | 1016.4 |
| 20260505222152 | 63 | 141 | 1.0 | 3.0 | 0.00 | 0.00 | 0.12 | 75 | 1016.5 |
| 20260505221645 | 63 | 261 | 1.0 | 3.0 | 0.00 | 0.00 | 0.12 | 75 | 1016.4 |
| 20260505221142 | 63 | 262 | 1.0 | 3.0 | 0.00 | 0.00 | 0.12 | 77 | 1016.5 |
| 20260505220642 | 62 | 217 | 0.0 | 3.0 | 0.00 | 0.00 | 0.12 | 77 | 1016.6 |
| 20260505220142 | 62 | 187 | 0.0 | 2.0 | 0.00 | 0.00 | 0.12 | 77 | 1016.5 |
| 20260505215642 | 62 | 131 | 0.0 | 2.0 | 0.00 | 0.00 | 0.12 | 78 | 1016.6 |
| 20260505215145 | 61 | 130 | 0.0 | 2.0 | 0.00 | 0.00 | 0.12 | 78 | 1016.7 |
| 20260505214639 | 62 | 131 | 0.0 | 2.0 | 0.00 | 0.00 | 0.12 | 77 | 1016.6 |
| 20260505213644 | 61 | 183 | 0.0 | 2.0 | 0.00 | 0.00 | 0.12 | 79 | 1016.7 |
| 20260505212136 | 62 | 261 | 0.0 | 4.0 | 0.00 | 0.00 | 0.12 | 78 | 1016.8 |
| 20260505211636 | 62 | 261 | 1.0 | 4.0 | 0.00 | 0.00 | 0.12 | 77 | 1016.8 |
| 20260505211137 | 62 | 104 | 0.0 | 2.0 | 0.00 | 0.00 | 0.12 | 77 | 1016.8 |
| 20260505210631 | 62 | 159 | 0.0 | 2.0 | 0.00 | 0.00 | 0.12 | 78 | 1016.8 |
| 20260505210125 | 62 | 259 | 0.0 | 2.0 | 0.00 | 0.00 | 0.12 | 76 | 1016.8 |
| 20260505205122 | 62 | 259 | 0.0 | 2.0 | 0.00 | 0.00 | 0.12 | 77 | 1016.9 |
| 20260505204623 | 62 | 263 | 0.0 | 1.0 | 0.00 | 0.00 | 0.12 | 79 | 1016.9 |
| 20260505203623 | 62 | 263 | 0.0 | 4.0 | 0.00 | 0.00 | 0.12 | 75 | 1016.9 |
| 20260505203123 | 62 | 267 | 0.0 | 1.0 | 0.00 | 0.00 | 0.12 | 77 | 1016.9 |
| 20260505202623 | 62 | 266 | 0.0 | 1.0 | 0.00 | 0.00 | 0.12 | 76 | 1016.9 |
| 20260505202122 | 62 | 266 | 0.0 | 1.0 | 0.00 | 0.00 | 0.12 | 78 | 1016.9 |
| 20260505201622 | 61 | 267 | 0.0 | 1.0 | 0.00 | 0.00 | 0.12 | 80 | 1016.9 |
| 20260505200623 | 60 | 266 | 0.0 | 0.0 | 0.00 | 0.00 | 0.12 | 81 | 1017.1 |
| 20260505200121 | 60 | 266 | 0.0 | 2.0 | 0.00 | 0.00 | 0.12 | 81 | 1017.1 |
| 20260505195620 | 60 | 266 | 0.0 | 2.0 | 0.00 | 0.00 | 0.12 | 79 | 1017.1 |
| 20260505194620 | 60 | 266 | 0.0 | 2.0 | 0.00 | 0.00 | 0.12 | 81 | 1017.1 |
| 20260505194119 | 60 | 266 | 0.0 | 2.0 | 0.00 | 0.00 | 0.12 | 80 | 1017.1 |
| 20260505193619 | 60 | 266 | 0.0 | 1.0 | 0.00 | 0.00 | 0.12 | 81 | 1017.1 |